Lapse_Rate
4.0 4.1 3.7 3.9 5.0 5.5 5.7 5.6 5.9 7.0 7.8 8.1 9.3 9.3 9.4 9.4 9.4 9.5 9.4 9.3 9.5 9.5 9.5 9.4 9.2 9.2 9.0
4.2 3.6 4.0 4.4 4.4 3.8 5.4 6.5 6.4 6.7 7.8 8.5 8.6 9.2 9.3 9.3 9.3 8.8 8.5 8.6 8.7 8.7 9.5 9.4 9.5 9.4 9.6
5.2 4.4 4.3 4.5 5.5 5.1 4.8 5.4 5.6 6.7 7.5 7.7 7.9 8.3 8.9 9.0 8.7 8.7 8.9 8.8 9.1 9.0 9.0 9.5 9.4 9.4 9.5
5.5 5.7 4.7 5.6 4.4 4.8 5.8 5.7 5.5 6.1 6.4 6.8 7.6 8.0 8.1 8.2 8.3 9.0 9.1 8.8 8.8 9.1 9.5 9.5 9.5 9.3 9.5
6.1 6.2 7.3 7.0 6.3 6.3 7.2 7.7 6.8 5.3 5.2 4.7 4.8 5.2 5.3 6.5 7.1 8.0 8.6 8.8 8.9 8.9 9.1 9.2 9.3 9.1 9.4
7.0 7.9 7.2 6.2 6.4 6.4 7.3 7.7 6.9 6.4 7.5 7.6 5.9 4.9 5.0 5.1 6.4 7.8 8.4 8.7 8.6 8.5 8.3 8.6 9.0 8.5 8.9
6.5 7.6 6.7 6.9 7.0 7.0 7.6 7.4 6.8 7.4 7.8 8.0 5.9 5.5 5.3 5.4 6.5 7.8 8.4 8.5 8.7 9.0 8.9 8.9 9.3 8.7 9.2
6.8 7.0 7.7 8.0 8.1 7.8 7.2 7.2 6.5 6.5 6.3 7.1 5.9 5.4 4.4 5.4 6.9 8.0 8.5 8.5 8.5 7.9 7.9 8.2 9.0 9.1 8.5
8.2 8.1 8.3 8.4 8.6 7.8 6.5 6.7 7.0 6.9 6.2 6.7 6.5 5.7 5.4 4.5 5.4 7.5 7.6 7.4 7.6 8.0 9.0 9.1 6.8 8.0 7.2
5.6 5.6 6.3 6.1 7.6 6.6 6.3 6.4 6.5 6.4 5.6 6.6 6.9 6.2 6.1 5.4 5.0 6.7 5.8 6.6 7.4 7.6 8.0 8.2 7.8 6.5 5.2
4.7 4.8 4.6 4.8 5.2 5.7 5.8 5.4 6.5 6.8 6.5 7.4 5.0 4.5 6.3 6.6 5.2 4.8 4.9 5.1 5.2 5.5 6.3 6.8 7.6 8.5 5.4
4.5 4.7 4.8 4.8 4.7 4.9 5.0 5.3 5.5 5.7 5.6 5.6 4.5 3.5 4.1 6.2 6.7 4.8 4.7 4.8 4.5 3.9 4.3 5.8 6.8 7.6 8.4
4.9 4.7 5.0 4.7 4.7 4.7 4.7 4.8 4.2 4.4 5.6 5.4 3.6 4.2 4.5 4.9 5.6 5.5 6.1 5.4 4.8 4.2 4.1 4.4 4.1 4.1 3.9
5.3 5.9 6.0 5.7 5.6 5.5 4.2 4.2 3.8 3.4 5.1 5.2 4.9 4.4 3.2 4.4 5.0 4.9 5.3 5.8 5.7 5.4 5.1 5.4 5.9 5.5 4.4
4.8 4.9 5.1 5.0 4.6 4.5 3.6 3.7 4.1 4.4 3.7 3.9 4.8 4.2 4.0 4.4 4.7 5.3 5.7 5.9 5.5 5.2 5.3 6.2 6.9 7.0 6.6
4.5 4.1 4.2 4.0 4.0 4.3 3.3 0.8 2.6 3.4 3.5 2.7 2.5 3.0 3.8 5.0 5.5 5.9 6.2 6.0 5.4 5.3 5.6 5.3 5.4 4.8 5.6
2.8 3.6 4.1 3.8 4.6 3.0 2.6 2.8 3.0 3.1 3.3 1.7 1.8 4.2 2.2 4.1 5.5 6.0 5.7 5.7 5.8 5.8 5.6 5.8 6.3 5.8 5.4
Wind_Speed
2 3 3 5 12 17 17 17 17 21 23 24 24 24 24 24 24 24 24 19 19 18 19 18 19 21 21
3 3 4 4 8 7 12 15 16 21 24 24 23 22 22 21 22 19 15 14 14 12 16 17 19 18 20
7 3 3 3 7 6 6 12 14 20 22 23 23 20 19 21 18 14 16 10 11 11 12 15 18 16 15
6 6 3 5 3 6 8 6 9 15 20 19 20 19 19 20 19 17 15 12 13 16 18 19 18 14 15
6 8 9 9 8 6 7 10 10 5 4 5 8 12 15 18 15 16 13 14 16 18 20 17 13 16 15
8 10 10 7 9 7 8 9 6 2 5 8 9 7 9 13 17 17 16 17 16 15 13 15 17 18 18
9 9 10 10 10 7 10 10 5 7 9 9 4 6 10 13 17 16 16 14 14 14 16 18 18 18 18
4 8 9 10 8 8 7 8 5 5 3 7 3 3 4 12 12 11 13 14 12 11 14 15 19 18 12
17 18 18 18 17 5 5 7 7 5 2 2 3 3 3 4 7 9 11 16 16 17 15 13 16 10 5
6 11 14 13 16 7 4 6 6 5 2 5 6 3 4 3 3 12 11 18 17 15 15 15 10 8 3
6 6 6 5 5 9 8 3 6 7 9 6 2 2 2 4 3 3 4 7 8 11 13 12 11 8 3
5 6 6 6 6 9 12 11 11 10 16 9 3 2 2 4 6 3 4 6 4 3 3 8 8 9 10
7 7 7 7 11 7 11 13 13 14 13 9 4 5 4 4 6 6 5 3 3 3 2 2 2 1 2
6 7 7 6 7 6 5 6 7 5 10 11 9 4 3 6 6 8 5 3 2 3 2 2 3 4 2
6 6 7 6 7 6 4 5 4 6 7 7 8 9 6 8 5 5 5 3 3 3 1 1 2 3 3
6 5 6 6 7 6 4 2 5 6 5 3 3 4 3 3 8 3 4 2 2 2 1 1 2 3 3
4 5 6 6 8 6 5 5 5 4 5 2 2 2 3 2 2 9 3 3 4 3 2 1 3 4 2
Wind_Direction
282 270 281 289 294 293 298 295 295 307 312 312 307 301 294 293 295 289 281 279 284 286 293 304 308 306 317
286 285 265 280 278 293 298 303 297 304 309 311 309 304 302 303 303 310 306 294 296 307 306 304 305 305 304
296 263 267 274 305 301 300 302 294 297 304 303 303 307 306 307 306 303 311 310 308 304 303 304 303 303 310
295 299 284 305 288 302 309 306 302 301 299 299 303 310 320 312 308 298 284 284 289 289 291 295 292 291 294
305 308 313 312 299 300 295 315 310 277 302 308 314 310 306 308 306 297 289 297 294 291 294 287 297 306 303
317 309 308 306 299 289 310 317 311 266 322 309 308 300 297 296 299 294 285 288 294 299 296 296 304 299 290
310 317 323 328 321 313 315 309 305 312 309 304 305 301 304 302 307 302 297 298 299 305 305 300 294 293 293
312 300 306 313 315 307 317 309 286 291 306 303 315 303 310 312 317 324 321 315 311 322 311 317 297 280 279
320 321 326 330 325 342 334 328 316 302 287 312 320 290 286 293 327 360 343 323 314 304 301 312 330 304 316
310 318 320 318 332 331 315 313 310 309 283 337 309 333 316 278 309 318 313 313 312 301 293 294 282 294 301
313 309 307 304 308 312 301 271 298 282 281 301 275 286 247 298 286 277 285 295 294 294 298 294 286 259 246
315 314 316 318 314 308 301 291 271 266 285 279 262 207 259 285 285 293 287 279 273 282 305 305 295 283 266
326 323 320 311 307 307 304 303 294 285 283 271 228 263 243 251 278 284 302 294 276 271 296 304 301 317 319
316 315 316 318 317 315 309 320 318 309 305 287 281 248 255 253 260 277 273 273 285 263 251 260 240 235 260
312 313 313 315 312 311 300 316 299 309 312 317 302 261 248 259 279 274 286 276 262 282 252 267 255 271 274
313 308 310 314 313 315 311 271 296 307 308 289 316 338 338 282 233 309 329 333 341 325 321 0 347 335 315
295 309 312 309 319 312 312 308 315 303 295 282 333 350 352 314 299 41 8 352 342 351 2 340 309 303 297